Flag for Canada Weather past 2 weeks in Peterborough, Ontario, Canada

Now
36 °F

Overcast.


Feels Like: 26 °F
Forecast: 28 / 38 °F
Wind: 16 mph from Northwest

Location: Peterborough Airport

Current Time: Dec 28, 2014 at 1:09:10 PM

Latest Report: Dec 28, 2014 at 12:00 PM


Visibility: 9 mi

Pressure: 29.96 "Hg

Humidity: 65%

Dew point: 25 °F

Location of PeterboroughLocation

Historic Weather in Peterborough — Graph

°F

Peterborough temperature yesterday

Maximum temperature yesterday: 48 °F (at 8:00 PM)
Minimum temperature yesterday: 28 °F (at 12:00 AM)
Average temperature yesterday: 40 °F

Past Weeks' High & Low Weather Summary

 TemperatureHumidityPressure
High50 °F (Dec 24, 11:00 PM)100% (Dec 13, 12:00 PM)30.35 "Hg (Dec 13, 12:00 PM)
Low12 °F (Dec 20, 7:00 AM)51% (Dec 20, 3:00 PM)29.18 "Hg (Dec 25, 12:50 AM)
Average33 °F91%29.98 "Hg
* Reported Dec 13 12:00 Noon — Dec 28 12:00 Noon, Peterborough, Weather by CustomWeather, © 2014

Note: Actual official high and low records may vary slightly from our data, if they occured in-between our weather recording intervals... More about our weather records

Advertising

Peterborough weather history for previous 24 hours

 ConditionsComfort  
Time TempWeatherWind HumidityBarometerVisibility
12:00 PM
Dec 28
36 °FOvercast.16 mph65%29.96 "Hg9 mi
11:00 AM36 °FOvercast.12 mph65%29.98 "Hg9 mi
10:00 AM34 °FOvercast.15 mph70%29.96 "Hg9 mi
9:00 AM34 °FOvercast.13 mph70%29.96 "Hg9 mi
8:00 AM34 °FOvercast.12 mph75%29.93 "Hg9 mi
7:00 AM34 °FOvercast.23 mph75%29.90 "Hg9 mi
6:00 AM36 °FOvercast.17 mph81%29.88 "Hg9 mi
5:00 AM36 °FMostly cloudy.17 mph81%29.86 "Hg9 mi
4:58 AM36 °FMostly cloudy.16 mph81%29.86 "Hg9 mi
4:00 AM37 °FMostly cloudy.14 mph87%29.84 "Hg9 mi
3:53 AM37 °FOvercast.13 mph87%29.84 "Hg9 mi
3:00 AM41 °FMostly cloudy.16 mph81%29.84 "Hg9 mi
2:00 AM41 °FLight rain. Mostly cloudy.8 mph87%29.81 "Hg9 mi
1:00 AM45 °FMostly cloudy.15 mph81%29.80 "Hg9 mi
12:57 AM45 °FMostly cloudy.18 mph81%29.80 "Hg9 mi
12:00 AM46 °FLight rain. Mostly cloudy.12 mph87%29.81 "Hg9 mi
11:00 PM
Dec 27
46 °FOvercast.9 mph87%29.80 "Hg9 mi
10:00 PM46 °FLight rain. Overcast.9 mph87%29.84 "Hg9 mi
9:00 PM46 °FOvercast.13 mph87%29.85 "Hg9 mi
8:53 PM46 °FOvercast.16 mph82%29.86 "Hg9 mi
8:00 PM48 °FMostly cloudy.17 mph71%29.86 "Hg9 mi
7:00 PM46 °FMostly cloudy.12 mph76%29.86 "Hg9 mi
6:00 PM45 °FOvercast.10 mph81%29.90 "Hg9 mi
5:00 PM43 °FMostly cloudy.5 mph87%29.92 "Hg9 mi
4:00 PM45 °FMore clouds than sun.7 mph81%29.93 "Hg9 mi
3:55 PM45 °FCloudy.7 mph81%29.94 "Hg9 mi
3:00 PM43 °FMostly cloudy.7 mph93%29.94 "Hg9 mi
2:00 PM43 °FLight rain. Overcast.8 mph87%29.99 "Hg9 mi
1:00 PM45 °FMostly cloudy.8 mph81%30.03 "Hg9 mi
Weather by CustomWeather, © 2014

See weather overviewHow to use our weather pages